Location: Unspecified
(0.0000°N, 0.0000°E)
Time: 02:53:29
(UTC+00:00)

Vanguard 2 Rocket - Pass Details

Date: 25 October 2025
Orbit: 554 x 3288 km, 32.9° (Epoch: 06 November)

Event Time Altitude Azimuth Distance (km) Brightness Sun altitude
Rises 00:38:00 0° 302° (WNW) 5,291 - -72.0°
Reaches altitude 10° 00:43:26 10° 323° (NW) 4,830 - -70.9°
Maximum altitude 00:51:27 16° 357° (N) 4,951 - -69.4°
Exits shadow 01:01:01 10° 29° (NNE) 5,978 11.0 -67.4°
Drops below altitude 10° 01:01:15 10° 30° (NNE) 6,008 11.0 -67.3°
Sets 01:09:46 0° 49° (NE) 7,243 11.6 -65.5°
